Tracking 31027 objects as of 19-Jul-2025
HD Live streaming from Space Station
objects crossing your sky now

DMSP 5D-2 F13 DEB

Track DMSP 5D-2 F13 DEB now!
10-day predictions


NORAD ID: 42265
Int'l Code: 1995-015GF
Perigee: 779.3 km
Apogee: 783.0 km
Inclination: 98.7 °
Period: 100.3 minutes
Semi major axis: 7152 km
RCS: Unknown
Launch date: March 24, 1995
Source: United States (US)
Launch site: AIR FORCE WESTERN TEST RANGE (AFWTR)

Note: This is SATELLITE DEBRIS
Your satellite tracking list
Your tracking list is empty




NASA's NSSDC Master Catalog

Two Line Element Set (TLE):
1 42265U 95015GF  25199.82417652  .00003626  00000-0  12804-2 0  9994
2 42265  98.7034 230.4707 0002563 286.4773  73.6131 14.35316965500726
Source of the keplerian elements: AFSPC